Regional Weather Roundup
Issued by NWS

Home | Current Version | Previous Version | Text Only | Print | Product List | Glossary On
Versions: 1 2 3 4 5 6 7 8 9 10 11 12 13 14 15 16 17 18 19 20 21 22 23 24 25 26 27 28 29 30 31 32 33 34 35 36 37 38 39 40 41 42 43 44 45 46 47 48 49 50
000
ASUS44 KFWD 270015
RWRTX
NORTH TEXAS HOURLY WEATHER ROUNDUP
NATIONAL WEATHER SERVICE FORT WORTH TX
700 PM CDT SUN MAR 26 2017

NOTE: "FAIR" INDICATES FEW OR NO CLOUDS BELOW 12,000 FEET WITH NO
SIGNIFICANT WEATHER AND/OR OBSTRUCTIONS TO VISIBILITY.

TXZ118-119-270100-
DALLAS/FORT WORTH METROPLEX

CITY           SKY/WX    TMP DP  RH WIND       PRES   REMARKS
DFW AIRPORT    CLOUDY    82  60  47 S22G33    29.68F
6HR MIN TEMP:  80; 6HR MAX TEMP:  86;

DALLAS LOVE    CLOUDY    82  59  45 S21       29.71F
6HR MIN TEMP:  77; 6HR MAX TEMP:  85;

FTW MEACHAM    CLOUDY    80  60  50 SE24G32   29.64F
6HR MIN TEMP:  80; 6HR MAX TEMP:  84;

DAL-EXECUTIVE  CLOUDY    80  60  50 S12G23    29.71F
6HR MIN TEMP:  77; 6HR MAX TEMP:  83;

FTW-ALLIANCE   CLOUDY    79  61  53 SE24G35   29.63F THUNDER
6HR MIN TEMP:  79; 6HR MAX TEMP:  84;

FTW-SPINKS     MOCLDY    79  59  50 SE12G18   29.70F
ARLINGTON      CLOUDY    79  59  50 SE18G28   29.68F
6HR MIN TEMP:  77; 6HR MAX TEMP:  82;

GRAND PRAIRIE  CLEAR     79  57  47 SE14G23   29.72F
ADDISON        MOCLDY    79  59  50 SE20G28   29.70F
MESQUITE       CLOUDY    79  55  44 SE15G21   29.74F
LANCASTER      CLOUDY    78  58  49 S15       29.75R
6HR MIN TEMP:  76; 6HR MAX TEMP:  82;

$$

TXZ091>094-102>105-117-120-121-131>134-270100-
NORTH CENTRAL TEXAS

CITY           SKY/WX    TMP DP  RH WIND       PRES   REMARKS
SHRMAN/DENISON CLOUDY    76  59  54 SE15G24   29.73S
6HR MIN TEMP:  73; 6HR MAX TEMP:  81;

GAINESVILLE    CLOUDY    75  59  58 S15       29.70F
6HR MIN TEMP:  73; 6HR MAX TEMP:  80;

BOWIE          CLOUDY    65  60  82 NW7       29.71R
6HR MIN TEMP:  65; 6HR MAX TEMP:  82; 6HR PCP:  0.29;

BRIDGEPORT     LGT RAIN  69  63  80 S6        29.72R
6HR MIN TEMP:  69; 6HR MAX TEMP:  82; 6HR PCP:  0.07;

DECATUR        CLOUDY    69  59  69 SE6G23    29.71R
6HR MIN TEMP:  68; 6HR MAX TEMP:  81; 6HR PCP:  0.14;

DENTON         CLOUDY    78  61  55 SE22G30   29.66F THUNDER
6HR MIN TEMP:  78; 6HR MAX TEMP:  83;

MCKINNEY       CLOUDY    77  61  57 SE15      29.72F
6HR MIN TEMP:  74; 6HR MAX TEMP:  81;

BONHAM         CLOUDY    77  59  53 SE12G20   29.73F
GREENVILLE     PTCLDY    77  55  47 S10       29.76S
ROCKWALL       CLOUDY    79  59  51 S12G18    29.75S
6HR MIN TEMP:  76; 6HR MAX TEMP:  83;

TERRELL        MOCLDY    78  59  51 SE12      29.76F
6HR MIN TEMP:  76; 6HR MAX TEMP:  83;

WAXAHACHIE     CLOUDY    78  60  52 SE14G21   29.74F
6HR MIN TEMP:  77; 6HR MAX TEMP:  82;

CLEBURNE       CLOUDY    79  61  53 S16G25    29.71F
GRANBURY       CLOUDY    82  59  44 SE16G23   29.70R
6HR MIN TEMP:  80; 6HR MAX TEMP:  86;

$$

TXZ083>090-098>101-113>116-127>130-139>142-154-155-270100-
WESTERN NORTH TEXAS

CITY           SKY/WX    TMP DP  RH WIND       PRES   REMARKS
WICHITA FALLS  PTCLDY    78  43  28 SW9       29.67F
6HR MIN TEMP:  75; 6HR MAX TEMP:  83;

WF-KICKAPOO    PTCLDY    79  42  26 SW8       29.70S
6HR MIN TEMP:  76; 6HR MAX TEMP:  83;

VERNON         MOSUNNY   81  24  12 S17       29.67S
6HR MIN TEMP:  45; 6HR MAX TEMP:  83;

ABILENE        MOSUNNY   78  31  17 W7        29.75S
6HR MIN TEMP:  77; 6HR MAX TEMP:  83;

ABILENE-DYESS  MOSUNNY   81  34  18 W5        29.74R
6HR MIN TEMP:  78; 6HR MAX TEMP:  83;

GRAHAM         CLEAR     80  45  28 W9        29.70R
6HR MIN TEMP:  80; 6HR MAX TEMP:  85;

BRECKENRIDGE   SUNNY     81  34  18 NW10G17   29.72R
6HR MIN TEMP:  81; 6HR MAX TEMP:  86;

CISCO          SUNNY     81  41  24 W13G21    29.74R
RANGER         CLEAR     81  48  32 W9        29.72S
MINERAL WELLS  CLOUDY    77  57  50 S16G30    29.69R
6HR MIN TEMP:  72; 6HR MAX TEMP:  84; 6HR PCP:  0.14;

STEPHENVILLE   CLOUDY    70  60  70 SE12      29.75R
6HR MIN TEMP:  68; 6HR MAX TEMP:  85; 6HR PCP:  0.10;

COMANCHE       CLOUDY    84  53  33 NW8       29.72R
6HR MIN TEMP:  80; 6HR MAX TEMP:  86;

BROWNWOOD      SUNNY     82  50  32 W8        29.73R
COLEMAN        SUNNY     81  32  17 W13G18    29.75R
6HR MIN TEMP:  81; 6HR MAX TEMP:  86;

$$

TXZ143>147-156>162-174-175-270100-
CENTRAL TEXAS

CITY           SKY/WX    TMP DP  RH WIND       PRES   REMARKS
WACO           MOCLDY    79  60  52 S20G25    29.73S
6HR MIN TEMP:  79; 6HR MAX TEMP:  84; 6HR PCP: TRACE;

WACO-TSTC      CLEAR     81  59  47 S13G20    29.74S
WACO-MCGREGOR  MOCLDY    80  60  50 MISG      29.74R
6HR MIN TEMP:  80; 6HR MAX TEMP:  86;

HILLSBORO      CLOUDY    78  61  54 SE15      29.74R
6HR MIN TEMP:  75; 6HR MAX TEMP:  82;

CORSICANA      LGT RAIN  80  56  43 S15       29.77S
6HR MIN TEMP:  78; 6HR MAX TEMP:  84; 6HR PCP: TRACE;

MEXIA          PTCLDY    79  57  46 S10G20    29.77R
6HR MIN TEMP:  78; 6HR MAX TEMP:  83;

HEARNE           N/A     79  61  53 SE14G28   29.78S
CAMERON        PTCLDY    80  63  56 S15       29.77R
6HR MIN TEMP:  80; 6HR MAX TEMP:  86;

TEMPLE         PTCLDY    80  60  50 S21G28    29.73F
6HR MIN TEMP:  79; 6HR MAX TEMP:  84;

KILLEEN        MOCLDY    80  58  47 SE17      29.72F
6HR MIN TEMP:  79; 6HR MAX TEMP:  84;

KILLEEN-SKYLRK MOCLDY    80  59  48 S20G29    29.73F
6HR MIN TEMP:  80; 6HR MAX TEMP:  85;

FORT HOOD      MOCLDY    80  58  46 S15G24    29.70S
6HR MIN TEMP:  80; 6HR MAX TEMP:  85; 6HR PCP: TRACE;

GATESVILLE     PTCLDY    81  59  47 S14G21    29.75R
HAMILTON       LGT RAIN  80  58  46 S18       29.71F
6HR MIN TEMP:  80; 6HR MAX TEMP:  87;

LAMPASAS       MOCLDY    82  58  44 S14       29.73R
6HR MIN TEMP:  78; 6HR MAX TEMP:  85;

$$

TXZ095>097-106>112-122>126-135>138-148>153-164>167-270100-
EAST TEXAS

CITY           SKY/WX    TMP DP  RH WIND       PRES   REMARKS
PARIS          PTCLDY    75  59  57 SE13      29.78F
6HR MIN TEMP:  75; 6HR MAX TEMP:  81;

SULPHUR SPRNGS CLOUDY    79  53  39 S10G16    29.79S
6HR MIN TEMP:  75; 6HR MAX TEMP:  82;

MOUNT PLEASANT CLOUDY    79  54  42 SE10G16   29.80S
6HR MIN TEMP:  76; 6HR MAX TEMP:  81;

GILMER         CLOUDY    78  58  49 SE10G17   29.79F
6HR MIN TEMP:  74; 6HR MAX TEMP:  82;

MINEOLA        CLOUDY    79  57  47 SE7       29.78R
TYLER          CLEAR     79  55  43 S14       29.78F
6HR MIN TEMP:  77; 6HR MAX TEMP:  84;

LONGVIEW       CLEAR     77  60  55 SE8       29.80F
6HR MIN TEMP:  76; 6HR MAX TEMP:  85;

MARSHALL       PTCLDY    76  55  47 MISG      29.84F
6HR MIN TEMP:  75; 6HR MAX TEMP:  85;

ATHENS         PTCLDY    77  57  50 S7        29.77R
PALESTINE      CLEAR     79  61  53 SE8       29.79F
JACKSONVILLE   CLEAR     78  54  43 S9G16     29.83F
HENDERSON      CLEAR     79  55  44 S13G18    29.82F
6HR MIN TEMP:  75; 6HR MAX TEMP:  83;

CENTER         CLEAR     81  60  47 S9        29.87R
6HR MIN TEMP:  81; 6HR MAX TEMP:  86;

NACOGDOCHES    CLEAR     79  57  47 S12       29.83R
6HR MIN TEMP:  79; 6HR MAX TEMP:  84;

LUFKIN         CLEAR     76  60  57 S12       29.86R
6HR MIN TEMP:  76; 6HR MAX TEMP:  84;

$$

SUPPLEMENTAL OBSERVATIONS (CENTRAL)

CITY           SKY/WX    TMP DP  RH WIND       PRES   REMARKS
DENISON DAM      N/A     77  57  50 SE13        N/A
PAT MAYSE LAKE   N/A     75  55  50 SE15        N/A
GREENVILLE       N/A     79  57  47 S7          N/A
CEDAR HILL       N/A     79  57  47 SE12G22     N/A
ATHENS           N/A     79  55  44 S10G20      N/A
LAKE LIMESTONE   N/A     79  55  44 S12G20      N/A
M


USA.gov is the U.S. government's official web portal to all federal, state and local government web resources and services.